User: anonymous   Login
Location: ??
(35.5653°N, 139.6194°E)
Time: 15:09:35
(UTC+00:00)
Language:

Cosmos 1437 - Orbit

View from above orbital plane
View from above orbital plane
View from above satellite
View from above satellite

Ground track
Ground track

The orbit data is extracted from the following two-line orbital elements,

1 13770U 83003A   20021.71155198  .00005333  00000-0  59653-4 0  9990
2 13770  81.1579  53.8338 0004542 107.6968 252.4781 15.62459648 34111
Epoch (UTC): 21 January 2020 17:04:38
Eccentricity: 0.0004542
inclination: 81.1579°
perigee height: 377 km
apogee height: 383 km
right ascension of ascending node: 53.8338°
argument of perigee: 107.6968°
revolutions per day: 15.62459648
mean anomaly at epoch: 252.4781°
orbit number at epoch: 3411

The dashed part of the orbit path shows where the satellite is in the earth's shadow,  

DLR